COSMOS 2251 DEB

Satellite information

Favourite Embed

Satellite Type and Status

DEBRISIN ORBIT

Key statistics

Satellite COSMOS 2251 DEB at a glance.

Uptime

11648

Days in orbit

Revolutions

≈ 14.6

Per day

Orbit

LEO

Low Earth Orbit

Inclination

74.1

Latest

Satellite identification and parameters

Extended collection of information and parameters for COSMOS 2251 DEB.

Object identification

Identified? True

Debris? True

Object name: COSMOS 2251 DEB

International designator: 1993-036CC

Object number (NORAD): 33835

Object ID (CCSDS): 33835

Country: COMMONWEALTH OF INDEPENDENT STATES (CIS)

Current information (Y/N): Y

RCS size: SMALL

Orbital parameters

Period: 98.631 minutes

Inclination: 74.0572 deg

SMA: 7071.336 km

Apoapsis: 736.49 km

Periapsis: 649.912 km

RAAN: 161.3115 deg

Eccentricy: 0.0061218

Argument of periapsis: 272.6648 deg

Mean anomaly: 211.9849 deg

Mean motion: 14.59992246 rev/day

Mean motion (dot): 0.0000396 rev/day2

B* drag term: 0.00080989 1/REarth

Two-line elements (TLE)

Creation date: May 7, 2025, 3:14 a.m.

Reference frame: TEME

Reference center: EARTH

Epoch: May 6, 2025, 1:41 p.m. UTC

TLE line 0: 0 COSMOS 2251 DEB

TLE line 1: 1 33835U 93036CC 25126.57027226 .00003960 00000-0 80989-3 0 9995

TLE line 2: 2 33835 74.0572 161.3115 0061218 272.6648 211.9849 14.59992246855744

Live tracking on map

Real-time ground track for satellite COSMOS 2251 DEB.

In-orbit conjunctions

A list of the most updated potential collisions computed for object COSMOS 2251 DEB.

Target Orbit TCA Probability of collision Miss distance Type
COSMOS 2251 DEB LEO 2025-04-30 17:34:57 0.0001004172 114.0 (m) DEBRIS
CZ-6A DEB LEO 2024-11-30 11:18:56 0.0004355739 45.0 (m) DEBRIS
CZ-6A DEB SSO 2024-11-17 09:25:03 0.0001106466 162.0 (m) DEBRIS
CZ-6A DEB SSO 2024-11-15 00:31:13 0.001021256 265.0 (m) DEBRIS

Associated space launch

Military communications satellite. Destroyed in a collision with Iridium 33.

COSMOS 2251 DEB was lifted into orbit during the mission ‘Kosmos-3M | Strela-2M 51’, on board a Kosmos-3M space rocket.

The launch took place on June 16, 1993, 4:17 a.m. from 132/1 (132L).

For more information about the launch, click the button.

Launch to space Kosmos-3M | Strela-2M 51
Kosmos-3M | Strela-2M 51

Agency: N/A

Status: Launch Successful

Launch date: June 16, 1993, 4:17 a.m. UTC

Rocket: Kosmos-3M

Launch pad: 132/1 (132L)

Location: Plesetsk Cosmodrome, Russian Federation

...

Latest news about this satellite

There are no fresh news available about this satellite. Check back as we update our databases every day.


Newsletter sign-up

Weekly statistics, charts and insights to help you stay on top of the space industry.